Regional Weather Roundup
Issued by NWS

Home | Current Version | Previous Version | Text Only | Print | Product List | Glossary Off
Versions: 1 2 3 4 5 6 7 8 9 10 11 12 13 14 15 16 17 18 19 20 21 22 23 24 25 26 27 28 29 30 31 32 33 34 35 36 37 38 39 40 41 42 43 44 45 46 47 48 49 50

000
ASUS43 KDMX 010307
RWRIA

WEATHER ROUNDUP FOR IOWA
NATIONAL WEATHER SERVICE DES MOINES IA
1000 PM CDT TUE SEP 30 2014

NOTE: "FAIR" INDICATES FEW OR NO CLOUDS BELOW 12,000 FEET WITH NO
SIGNIFICANT WEATHER AND/OR OBSTRUCTIONS TO VISIBILITY.

* - THESE STATIONS ARE NOT NWS STATIONS...THUS NOT UNDER NWS
QUALITY CONTROL.  THEY ALSO DO NOT REPORT WEATHER SUCH
AS PRECIPITATION OR FOG.

IAZ001>003-012>014-020>022-031>034-043>046-010400-
   NORTHWEST IOWA

CITY           SKY/WX    TMP DP  RH WIND       PRES   REMARKS
CARROLL *      CLOUDY    61  61 100 SE17G24   29.83F FOG
CHEROKEE *     CLOUDY    61  61 100 SE10      29.82S
DENISON *      MOCLDY    64  64 100 VRB6      29.79S
LE MARS *        N/A     61  59  94 SE10G18   29.79R
ORANGE CITY *  PTCLDY    63  57  82 SE10G18   29.79S
SHELDON *      CLEAR     61  59  94 SE15      29.80R
SIOUX CITY     MOCLDY    64  62  93 SE14      29.78S
SPENCER        CLOUDY    60  57  89 SE14G24   29.82F
STORM LAKE *   CLOUDY    61  59  94 SE10      29.84S FOG
$$

IAZ055>058-069>071-079>083-090>094-010400-
   SOUTHWEST IOWA

CITY           SKY/WX    TMP DP  RH WIND       PRES   REMARKS
ATLANTIC *     DRIZZLE   64  63  94 NE6G14    29.83S
AUDUBON *      LGT RAIN  63  57  82 E6        29.87R
CLARINDA *     LGT RAIN  66  66 100 VRB6      29.81S
COUNCIL BLFS * CLOUDY    64  64 100 E15       29.78R
CRESTON *      CLOUDY    64  63  94 E7        29.84F
HARLAN  *      CLOUDY    64  64 100 E13G21    29.84F
LAMONI         CLOUDY    67  61  81 E7        29.85R
RED OAK *      CLOUDY    64  64 100 NE10      29.80F
SHENANDOAH *   LGT RAIN  66  64  94 NE7       29.79F
$$

IAZ047>049-059>061-072>074-084-010400-
   CENTRAL IOWA

CITY           SKY/WX    TMP DP  RH WIND       PRES   REMARKS
AMES           LGT RAIN  60  60 100 NE5       29.90R
ANKENY *       MOCLDY    64  57  77 SE6       29.88R
CHARITON *     CLOUDY    66  59  77 SE9       29.87R
DES MOINES     LGT RAIN  66  57  72 SE10      29.87R
GRINNELL*      MOCLDY    59  52  77 E13       29.90S
KNOXVILLE *    CLOUDY    64  55  72 E9G16     29.87R
MARSHALLTOWN   CLOUDY    58  52  80 E15       29.89S
PELLA *        MOCLDY    63  55  77 E8        29.90R
PERRY *        LGT RAIN  61  61 100 NE9       29.87F
$$

IAZ004>006-015-016-023>025-035-036-010400-
   NORTH CENTRAL IOWA

CITY           SKY/WX    TMP DP  RH WIND       PRES   REMARKS
ALGONA *       PTCLDY    59  57  94 SE13      29.86S
CLARION *      LGT RAIN  59  57  94 SE16G23   29.88R
ESTHERVILLE    MOCLDY    58  56  93 SE15      29.84R
FORT DODGE *   CLOUDY    59  55  88 SE15G22   29.86R
MASON CITY     CLOUDY    57  51  80 SE12      29.90F
FOREST CITY *  PTCLDY    57  54  88 SE9       29.88R
IOWA FALLS *   LGT RAIN  59  55  88 E8        29.92F
$$

IAZ007>011-017>019-026>030-037>042-050>054-066-010400-
   NORTHEAST IOWA

CITY           SKY/WX    TMP DP  RH WIND       PRES   REMARKS
CEDAR RAPIDS   CLEAR     54  48  82 E10       29.93S
CHARLES CITY * MOCLDY    54  46  76 SE7       29.94R
CLINTON *      PTCLDY    54  45  71 E13       30.01S
DECORAH *      CLOUDY    48  45  87 E9G17     29.96S
MONTICELLO *   PTCLDY    52  46  82 E7        29.97S
OELWEIN *      CLOUDY    52  46  82 E18       29.93F
WATERLOO       CLOUDY    55  47  74 E13       29.92R
$$

IAZ064-065-067-068-078-010400-
   EAST CENTRAL IOWA

CITY           SKY/WX    TMP DP  RH WIND       PRES   REMARKS
IOWA CITY      PTCLDY    56  49  77 E10       29.94F
MT. PLEASANT * CLEAR     57  54  88 E7        29.92F
MUSCATINE *    CLEAR     61  50  67 E8        29.95S
$$

IAZ062-063-075>077-085>089-095>099-010400-
   SOUTHEAST IOWA

CITY           SKY/WX    TMP DP  RH WIND       PRES   REMARKS
BURLINGTON     CLEAR     61  54  77 E8        29.93S
FAIRFIELD *    CLEAR     59  54  82 E13       29.90F
FORT MADISON * CLEAR     63  55  77 E6        29.92F
KEOKUK *       CLEAR     63  57  82 E10       29.90F
OSKALOOSA *      N/A     61  55  82 E9        29.90R
CENTERVILLE *  PTCLDY    64  61  88 E7        29.89R
OTTUMWA        PTCLDY    61  55  81 E12       29.89S
WASHINGTON *   CLEAR     57  54  88 E9        29.92F
$$

ABBREVIATIONS USED IN REMARKS
   TC - TEMPERATURES IN CELSIUS
  WCI - WIND CHILL INDEX
   HX - HEAT INDEX
  VSB - VISIBILITY
$$




USA.gov is the U.S. government's official web portal to all federal, state and local government web resources and services.